Location: Newark
(48.4472°N, 1.4892°E)
Time: 10:19:37
(UTC+00:00)

Transit 4A - Pass Details

Date: 19 January 2021
Orbit: 866 x 978 km, 66.8° (Epoch: 26 February)

Event Time Altitude Azimuth Distance (km) Brightness Sun altitude
Exits shadow 03:38:24 33° 73° (ENE) 1,512 9.3 -39.1°
Drops below altitude 10° 03:42:29 10° 109° (ESE) 2,609 10.8 -38.4°
Sets 03:45:09 0° 117° (ESE) 3,530 11.5 -38.0°
